Decatur, IL

4:04 PM CST on February 26, 2017 (GMT -0600)
Decatur

Weather History for KDEC - July, 2014

Change the Weather History Date:

Sunday, July 6, 2014

  Actual Average Record
Temperature  
Mean Temperature 76 °F 76 °F  
Max Temperature 84 °F 87 °F 104 °F (2012)
Min Temperature 67 °F 66 °F 39 °F (2007)
Degree Days  
Heating Degree Days 0 0  
Month to date heating degree days 0 0  
Since 1 June heating degree days 1 17  
Since 1 July heating degree days 0 0  
Cooling Degree Days 11 11  
Month to date cooling degree days 33 66  
Year to date cooling degree days 454 382  
Since 1 June cooling degree days 309 295  
Growing Degree Days 25 (Base 50)    
Moisture  
Dew Point 67 °F    
Average Humidity 76    
Maximum Humidity 87    
Minimum Humidity 65    
Precipitation  
Precipitation 0.00 in 0.12 in 1.12 in (2004)
Month to date precipitation 0.52 0.76  
Year to date precipitation 17.08 19.56  
Sea Level Pressure  
Sea Level Pressure 29.93 in    
Wind  
Wind Speed 13 mph (SSW)    
Max Wind Speed 21 mph    
Max Gust Speed 26 mph    
Visibility 10 miles    
Events      
T = Trace of Precipitation, MM = Missing Value Source: NWS Daily Summary

Daily Weather History Graph

Daily Weather History Graph

Search for Another Location

Airport or City:

Trip Planner

Search our weather history database for the weather conditions in past years. The results will help you decide how hot, cold, wet, or windy it might be!

Date:

Astronomy

Jul. 06, 2014 Rise Set
Actual Time 5:33 AM CDT 8:26 PM CDT
Civil Twilight 5:01 AM CDT 8:58 PM CDT
Nautical Twilight 4:20 AM CDT 9:39 PM CDT
Astronomical Twilight 3:33 AM CDT 10:26 PM CDT
Moon 2:27 PM CDT (7/6) 12:52 AM CDT (7/6)
Length of Visible Light 15h 57m
Length of Day
14h 53m
Waxing Gibbous, 62% of the Moon is Illuminated
Jul 6
Waxing Gibbous
Jul 12
Full
Jul 18
Last Quarter
Jul 26
New
Aug 3
First Quarter

Hourly Weather History & Observations

Time (CDT) Temp. Heat Index Dew Point Humidity Pressure Visibility Wind Dir Wind Speed Gust Speed Precip Events Conditions
12:54 AM 66.9 °F - 62.1 °F 84% 30.06 in 10.0 mi South 11.5 mph - 0.00 in   Overcast
1:54 AM 66.9 °F - 61.0 °F 81% 30.04 in 10.0 mi South 11.5 mph - N/A   Overcast
2:54 AM 68.0 °F - 61.0 °F 78% 30.02 in 10.0 mi South 11.5 mph - N/A   Overcast
3:54 AM 68.0 °F - 60.1 °F 76% 29.99 in 10.0 mi SSW 12.7 mph - N/A   Mostly Cloudy
4:54 AM 66.9 °F - 61.0 °F 81% 29.98 in 10.0 mi SSW 11.5 mph - N/A   Scattered Clouds
5:54 AM 68.0 °F - 61.0 °F 78% 29.98 in 10.0 mi SSW 11.5 mph - N/A   Overcast
6:54 AM 68.0 °F - 62.1 °F 81% 30.00 in 10.0 mi SSW 11.5 mph - N/A   Overcast
7:54 AM 71.1 °F - 63.0 °F 75% 29.98 in 10.0 mi SW 12.7 mph - N/A   Scattered Clouds
8:54 AM 75.0 °F - 64.9 °F 71% 29.99 in 10.0 mi SW 13.8 mph - N/A   Clear
9:54 AM 78.1 °F - 66.9 °F 68% 29.97 in 10.0 mi WSW 11.5 mph - N/A   Clear
10:54 AM 81.0 °F 84.4 °F 70.0 °F 69% 29.96 in 10.0 mi WSW 9.2 mph - N/A   Clear
11:50 AM 82.4 °F 86.3 °F 69.8 °F 66% 29.97 in 10.0 mi West 6.9 mph - N/A   Scattered Clouds
11:54 AM 82.0 °F 85.9 °F 70.0 °F 67% 29.96 in 10.0 mi West 10.4 mph - N/A   Scattered Clouds
12:54 PM 81.0 °F 84.9 °F 71.1 °F 72% 29.94 in 10.0 mi SSW 12.7 mph - N/A   Clear
1:54 PM 80.1 °F 83.6 °F 71.1 °F 74% 29.93 in 10.0 mi SSW 13.8 mph - N/A   Clear
2:54 PM 82.9 °F 87.5 °F 71.1 °F 67% 29.92 in 10.0 mi SW 13.8 mph 23.0 mph N/A   Partly Cloudy
3:54 PM 82.9 °F 87.5 °F 71.1 °F 67% 29.89 in 10.0 mi South 16.1 mph - N/A   Clear
4:54 PM 84.0 °F 89.0 °F 71.1 °F 65% 29.88 in 10.0 mi South 12.7 mph - N/A   Clear
5:54 PM 84.0 °F 89.0 °F 71.1 °F 65% 29.85 in 10.0 mi SSW 17.3 mph - N/A   Clear
6:54 PM 84.0 °F 89.0 °F 71.1 °F 65% 29.84 in 10.0 mi SSW 10.4 mph - N/A   Clear
7:54 PM 82.0 °F 86.7 °F 72.0 °F 71% 29.85 in 10.0 mi SSW 9.2 mph - N/A   Scattered Clouds
8:54 PM 80.1 °F 83.6 °F 71.1 °F 74% 29.84 in 10.0 mi South 11.5 mph - N/A   Clear
9:54 PM 79.0 °F - 71.1 °F 77% 29.84 in 10.0 mi SSW 12.7 mph - N/A   Clear
10:54 PM 78.1 °F - 71.1 °F 79% 29.84 in 10.0 mi SSW 13.8 mph - N/A   Scattered Clouds
11:54 PM 77.0 °F - 71.1 °F 82% 29.85 in 10.0 mi SW 15.0 mph - N/A   Clear